[[{"header":{"parameterUnit":"m.s-1","parameterCategory":1,"la1":30.2991,"la2":30.254,"lo1":-89.0895,"lo2":-89.0444,"dy":0.0017,"dx":0.0017,"nx":28,"ny":28,"refTime":"2025-02-01T03:00:00:Z","depth":0,"parameterNumber":2,"parameterNumberName":"U-component_of_WINDS"},"data":[0,0,0,0,0,0,0,0,0,0,0,0,0,0,0,0,0,0,0,0,0,0,0,0,0,0,0,0,0,0,0,0,0,0,0,0,0,0,0,0,0,0,0,0,0,0,0,0,0,0,0,0,0,0,0,0,0,0,0.8011,0.8012,0,0.8125,0.8126,0.8127,0.8151,0.815,0.815,0.8149,0.8268,0.8272,0.8275,0,0,0,0,0,0,0,0,0,0,0,0,0,0.7815,0.7818,0.8011,0.8012,0.8013,0.8124,0.8126,0.8128,0.8151,0.815,0.8149,0.8148,0.8266,0.8271,0.8276,0,0,0,0,0,0,0,0,0,0,0,0,0,0.7911,0.7819,0.801,0.8039,0.8042,0.8124,0.8126,0.8128,0.8152,0.815,0.8149,0.8148,0.8265,0.8271,0.8276,0.8339,0,0,0.8295,0.8297,0,0,0,0,0,0,0,0,0.7906,0.7918,0.8033,0.8037,0.8041,0.8122,0.8101,0.8199,0.8152,0.811,0.8149,0.8147,0.8221,0.823,0.8254,0.8344,0.8349,0.8295,0.8299,0.8301,0.8303,0,0,0,0,0,0,0,0.7899,0.7914,0.8056,0.8035,0.804,0.8046,0.8058,0.8119,0.8171,0.8114,0.8116,0.8129,0.8222,0.8249,0.8257,0.8351,0.8295,0.83,0.8304,0.8306,0.8497,0.8498,0,0,0,0,0,0,0.7887,0.7908,0.8052,0.8059,0.7969,0.8051,0.8064,0.8098,0.8171,0.818,0.813,0.813,0.8239,0.825,0.8262,0.8339,0.8301,0.8307,0.831,0.8495,0.8497,0.8499,0,0,0,0,0,0,0.7883,0.79,0.8048,0.7984,0.8003,0.8055,0.8092,0.8101,0.8127,0.8183,0.8192,0.8147,0.8238,0.8253,0.8319,0.8343,0.831,0.8315,0.8494,0.8496,0.8498,0.8494,0,0,0,0,0,0,0.7877,0.7898,0.7922,0.7984,0.8007,0.8103,0.8094,0.8104,0.8137,0.8137,0.8201,0.8211,0.8239,0.831,0.8325,0.8351,0.832,0.8492,0.8495,0.8497,0.8492,0.8496,0.8499,0,0,0,0,0,0.787,0.7917,0.7923,0.7941,0.8038,0.8104,0.8117,0.8148,0.8138,0.8163,0.8199,0.8209,0.8338,0.8317,0.8334,0.8362,0.849,0.8494,0.8497,0.8491,0.8495,0.8499,0,0,0,0,0,0,0.7858,0.7926,0.7933,0.8002,0.8047,0.8108,0.814,0.8151,0.8201,0.8199,0.8236,0.825,0.8314,0.8344,0.8319,0.8425,0.8414,0.8421,0.8403,0.8408,0.8411,0.8403,0.8324,0,0,0,0,0,0.7862,0.791,0.7968,0.8023,0.8045,0.8088,0.8119,0.8138,0.8186,0.8206,0.8247,0.8293,0.8345,0.8378,0.8428,0.8496,0.851,0.8524,0.8527,0.853,0.8536,0.8573,0.858,0.851,0.851,0.851,0,0,0.7874,0.7917,0.7945,0.8021,0.8058,0.8107,0.8104,0.8157,0.8193,0.8214,0.8278,0.831,0.8364,0.8431,0.8463,0.8459,0.8558,0.8534,0.8535,0.854,0.8577,0.8584,0.859,0.8512,0.8512,0.8511,0,0,0.792,0.7957,0.8007,0.8043,0.8099,0.8128,0.8139,0.8199,0.822,0.8285,0.8301,0.8345,0.8433,0.8471,0.8502,0.856,0.857,0.8575,0.8593,0.8629,0.8635,0.864,0.866,0.8667,0.858,0.858,0.858,0,0.7927,0.8001,0.8031,0.8082,0.8115,0.8134,0.8185,0.8219,0.8289,0.8311,0.8305,0.8414,0.8453,0.8529,0.8542,0.8567,0.8581,0.8568,0.8631,0.8637,0.8642,0.8662,0.8669,0.8581,0.858,0.858,0.858,0,0.8007,0.8057,0.8091,0.8156,0.8193,0.8243,0.8281,0.8314,0.833,0.8359,0.8425,0.8471,0.853,0.855,0.8566,0.8628,0.8623,0.8624,0.8613,0.8648,0.8667,0.8675,0.8581,0.8581,0.8581,0.8581,0,0,0.8049,0.8129,0.8141,0.8171,0.8233,0.8273,0.8324,0.8381,0.8409,0.8456,0.8499,0.8572,0.8572,0.8607,0.8628,0.8659,0.8702,0.8656,0.8658,0.8663,0.8772,0.8771,0.878,0.8709,0.871,0.8712,0.8767,0,0.8103,0.8194,0.8222,0.8298,0.8345,0.8364,0.8408,0.8451,0.8479,0.8523,0.8554,0.8605,0.8602,0.8623,0.8655,0.869,0.8724,0.8686,0.875,0.8752,0.8736,0.879,0.879,0.884,0.8775,0.8776,0.8777,0,0.8177,0.8224,0.8305,0.836,0.8381,0.842,0.8474,0.8516,0.8565,0.8583,0.8621,0.8638,0.8692,0.8678,0.8752,0.8725,0.8753,0.8774,0.8776,0.8784,0.8767,0.8799,0.8857,0.8865,0.879,0.8789,0.8788,0,0.82,0.8284,0.8342,0.8367,0.8433,0.846,0.8488,0.8536,0.8568,0.8615,0.8636,0.8689,0.8719,0.8759,0.8791,0.8777,0.8862,0.885,0.8879,0.8878,0.8897,0.8895,0.896,0.8914,0.8914,0.8914,0.8913,0,0.8257,0.8306,0.8353,0.839,0.8445,0.8476,0.853,0.8559,0.8601,0.8643,0.8662,0.8702,0.8741,0.8785,0.881,0.8867,0.8881,0.8897,0.8903,0.8895,0.8893,0.8914,0.8912,0.8916,0.8915,0.8915,0.8914,0,0.8292,0.8326,0.8392,0.8448,0.8463,0.8501,0.8549,0.8585,0.8613,0.8666,0.868,0.8725,0.8778,0.8813,0.8881,0.8898,0.896,0.8966,0.8944,0.8947,0.8973,0.897,0.9054,0.9067,0.9012,0.9012,0.9013,0,0.8327,0.8364,0.8424,0.8453,0.8482,0.8529,0.8561,0.8593,0.8626,0.8684,0.8712,0.8767,0.8812,0.8896,0.8934,0.8986,0.8993,0.9019,0.9001,0.8992,0.8993,0.8991,0.8994,0.9022,0.9022,0.9023,0.9023,0,0.8384,0.8398,0.8444,0.8495,0.8533,0.8575,0.8618,0.8641,0.868,0.8716,0.877,0.8805,0.8873,0.8927,0.8982,0.9012,0.9024,0.9028,0.9037,0.903,0.9016,0.9024,0.8952,0.9026,0.9026,0.9025,0.9025,0.9025,0.842,0.8454,0.8501,0.8551,0.8585,0.8624,0.866,0.8692,0.8737,0.8795,0.8811,0.8868,0.8914,0.8989,0.902,0.9064,0.9061,0.9075,0.9079,0.9081,0.9081,0.9008,0.9074,0.9074,0.9074,0.9074,0.9074,0,0.8478,0.8508,0.8554,0.8612,0.8651,0.8658,0.8704,0.8737,0.8786,0.8828,0.8871,0.8933,0.8984,0.9026,0.9079,0.9106,0.9113,0.9119,0.9118,0.9124,0.9081,0.9068,0.9113,0.9113,0.9113,0.9113,0.9113,0.9113,0.8513,0.857,0.859,0.8665,0.8695,0.875,0.8776,0.8811,0.8845,0.8912,0.8955,0.8981,0.9023,0.9079,0.9126,0.9137,0.9156,0.9161,0.9173,0.9132,0.9128,0.9123,0.9111,0.9165,0.9165,0.9212,0.9213,0.9213]},{"header":{"parameterUnit":"m.s-1","parameterCategory":1,"la1":30.2991,"la2":30.254,"lo1":-89.0895,"lo2":-89.0444,"dy":0.0017,"dx":0.0017,"nx":28,"ny":28,"refTime":"2025-02-01T03:00:00:Z","depth":0,"parameterNumber":3,"parameterNumberName":"V-component_of_WINDS"},"data":[0,0,0,0,0,0,0,0,0,0,0,0,0,0,0,0,0,0,0,0,0,0,0,0,0,0,0,0,0,0,0,0,0,0,0,0,0,0,0,0,0,0,0,0,0,0,0,0,0,0,0,0,0,0,0,0,0,0,1.6558,1.6557,0,1.6502,1.6501,1.6501,1.6526,1.6527,1.6529,1.653,1.6467,1.6464,1.6461,0,0,0,0,0,0,0,0,0,0,0,0,0,1.6679,1.6677,1.6558,1.6557,1.6556,1.6502,1.6501,1.65,1.6526,1.6527,1.6529,1.6531,1.6468,1.6464,1.646,0,0,0,0,0,0,0,0,0,0,0,0,0,1.6625,1.6676,1.6558,1.6563,1.6562,1.6502,1.6501,1.65,1.6525,1.6527,1.653,1.6532,1.6469,1.6464,1.646,1.639,0,0,1.6446,1.6444,0,0,0,0,0,0,0,0,1.6628,1.6621,1.6563,1.6562,1.6562,1.6523,1.6521,1.6463,1.6525,1.6539,1.653,1.6533,1.6483,1.6478,1.6462,1.6387,1.6384,1.6446,1.6443,1.6441,1.644,0,0,0,0,0,0,0,1.6632,1.6623,1.6535,1.6562,1.6561,1.6565,1.656,1.651,1.65,1.6538,1.654,1.6533,1.6483,1.6467,1.6461,1.6383,1.6446,1.6442,1.6439,1.6437,1.6245,1.6243,0,0,0,0,0,0,1.6637,1.6626,1.6537,1.6534,1.6601,1.6561,1.6555,1.6533,1.6501,1.6498,1.6532,1.6535,1.6473,1.6466,1.6459,1.6373,1.6441,1.6437,1.6434,1.6247,1.6244,1.6242,0,0,0,0,0,0,1.6639,1.6628,1.6539,1.658,1.657,1.6557,1.6532,1.6531,1.6515,1.6496,1.6493,1.6517,1.6475,1.6465,1.6407,1.6371,1.6435,1.6431,1.625,1.6246,1.6243,1.6202,0,0,0,0,0,0,1.6642,1.6629,1.6604,1.658,1.6567,1.649,1.653,1.6529,1.6507,1.6511,1.6481,1.6478,1.6476,1.6413,1.6402,1.6366,1.6427,1.6253,1.6248,1.6244,1.6206,1.6197,1.6189,0,0,0,0,0,1.6647,1.6594,1.6603,1.6592,1.6536,1.6488,1.6481,1.6481,1.6505,1.6478,1.6466,1.6479,1.6377,1.6407,1.6395,1.6357,1.6255,1.625,1.6245,1.621,1.6199,1.6189,0,0,0,0,0,0,1.6612,1.659,1.66,1.6538,1.6515,1.6493,1.6459,1.6469,1.6437,1.6442,1.6442,1.6434,1.6373,1.636,1.6393,1.6286,1.632,1.6311,1.6297,1.6287,1.6279,1.6282,1.6423,0,0,0,0,0,1.6597,1.6562,1.6545,1.6491,1.648,1.6471,1.645,1.6453,1.6428,1.6417,1.6401,1.6374,1.6336,1.6311,1.6275,1.6205,1.6197,1.6172,1.6164,1.6157,1.6149,1.6109,1.6097,1.6224,1.6224,1.6224,0,0,1.6566,1.655,1.6528,1.6484,1.6466,1.6428,1.6463,1.6421,1.6391,1.641,1.6354,1.6341,1.6311,1.6246,1.6216,1.6232,1.6113,1.615,1.6145,1.6141,1.6102,1.609,1.6079,1.622,1.6221,1.6222,0,0,1.6489,1.6475,1.6428,1.641,1.6383,1.6378,1.6367,1.6343,1.6335,1.6279,1.6292,1.6256,1.6191,1.6169,1.6149,1.6063,1.6074,1.6052,1.6007,1.5967,1.5957,1.5948,1.5916,1.5904,1.6044,1.6044,1.6044,0,1.6452,1.6397,1.6402,1.6359,1.6338,1.6356,1.6307,1.6288,1.625,1.6235,1.6254,1.6172,1.6154,1.6082,1.6061,1.6046,1.603,1.6054,1.5959,1.595,1.5942,1.591,1.5898,1.6042,1.6042,1.6042,1.6043,0,1.6353,1.6314,1.6279,1.6244,1.622,1.6174,1.6169,1.6143,1.6148,1.614,1.6081,1.606,1.6019,1.6003,1.6006,1.5931,1.5942,1.596,1.5993,1.5927,1.5897,1.5885,1.6038,1.6039,1.604,1.604,0,0,1.625,1.6219,1.6206,1.619,1.6162,1.613,1.6085,1.6047,1.6024,1.5997,1.5957,1.5901,1.5918,1.5895,1.5896,1.5862,1.5792,1.5884,1.5883,1.5866,1.5706,1.5691,1.5677,1.58,1.5798,1.5796,1.5708,0,1.617,1.6092,1.6094,1.602,1.5983,1.5999,1.5959,1.5936,1.5927,1.5893,1.5882,1.5842,1.5869,1.5855,1.5822,1.5808,1.576,1.5815,1.576,1.5758,1.5765,1.5662,1.5646,1.5563,1.5696,1.5694,1.5693,0,1.6065,1.6036,1.5959,1.5936,1.592,1.5884,1.5849,1.5817,1.579,1.5786,1.5761,1.5767,1.5718,1.5754,1.5685,1.5722,1.57,1.569,1.5686,1.5679,1.572,1.565,1.5537,1.5524,1.5675,1.5677,1.5678,0,1.5995,1.5937,1.5883,1.5869,1.5841,1.5815,1.5802,1.5778,1.5754,1.5723,1.5707,1.567,1.5649,1.5619,1.5614,1.5641,1.5543,1.558,1.5536,1.5536,1.5512,1.5513,1.5393,1.5502,1.5502,1.5502,1.5503,0,1.5903,1.5855,1.5852,1.5818,1.5763,1.5766,1.5711,1.57,1.5678,1.5641,1.5653,1.5617,1.5614,1.5576,1.5572,1.5514,1.5505,1.5498,1.5497,1.5495,1.5496,1.5479,1.5484,1.5499,1.55,1.55,1.5501,0,1.5815,1.5812,1.5753,1.5732,1.5726,1.5686,1.5667,1.5633,1.5627,1.5579,1.5568,1.5556,1.5512,1.5505,1.5453,1.545,1.538,1.5386,1.5389,1.5389,1.5345,1.5348,1.5207,1.5187,1.5311,1.531,1.5309,0,1.5756,1.5719,1.5694,1.5671,1.5657,1.562,1.5596,1.5597,1.5572,1.5539,1.5509,1.5467,1.5433,1.5362,1.5347,1.5307,1.5311,1.5264,1.5304,1.5304,1.5307,1.5308,1.5304,1.5255,1.5254,1.5253,1.5252,0,1.5649,1.565,1.5617,1.5583,1.5555,1.5528,1.5502,1.5482,1.5479,1.545,1.5406,1.5381,1.5328,1.5285,1.5246,1.523,1.5239,1.524,1.5227,1.5224,1.5227,1.5222,1.5365,1.5242,1.5243,1.5244,1.5245,1.5245,1.5572,1.554,1.5517,1.548,1.5461,1.5436,1.5404,1.5393,1.5358,1.5317,1.5319,1.5271,1.5244,1.5192,1.5173,1.5133,1.5148,1.513,1.5125,1.512,1.5115,1.5235,1.5126,1.5127,1.5127,1.5127,1.5127,0,1.5465,1.5451,1.5417,1.5381,1.5351,1.5366,1.5338,1.5311,1.5269,1.5244,1.5212,1.5161,1.5119,1.5101,1.506,1.5031,1.5035,1.502,1.5021,1.5017,1.5105,1.5119,1.5018,1.5018,1.5018,1.5018,1.5018,1.5018,1.5405,1.535,1.5348,1.5283,1.5269,1.5224,1.5206,1.5183,1.5163,1.5106,1.5073,1.5063,1.5039,1.4997,1.4958,1.4954,1.4937,1.492,1.4917,1.5,1.5011,1.5021,1.5034,1.4917,1.4917,1.4832,1.4831,1.483]}]]